FW7501 Weather Reports


time (UTC)temp
F
wind
direction
speed
knots
gust
knots
rain 1hr
in
rain 24hr
in
rain mn
in
humidity
%
barometer
mb
20260507051508 49 227 7.0 15.6 0.00 0.36 0.11 68 1022.3
20260507051007 49 202 10.4 15.6 0.00 0.36 0.11 68 1022.4
20260507050506 49 185 8.7 13.9 0.00 0.36 0.11 69 1022.4
20260507050011 49 219 5.2 13.9 0.00 0.36 0.11 69 1022.5
20260507045508 49 256 9.6 15.6 0.00 0.36 0.11 69 1022.5
20260507045006 49 243 9.6 18.2 0.00 0.36 0.11 69 1022.4
20260507044011 48 216 9.6 19.1 0.00 0.36 0.11 68 1022.4
20260507043507 48 237 9.6 19.1 0.00 0.36 0.11 67 1022.5
20260507043024 49 233 10.4 20.0 0.00 0.36 0.11 68 1022.5
20260507042512 49 223 11.3 20.0 0.00 0.36 0.11 69 1022.4
20260507042008 49 218 7.8 14.8 0.00 0.36 0.11 71 1022.5
20260507041507 48 231 8.7 14.8 0.00 0.36 0.11 71 1022.5
20260507041003 48 253 9.6 15.6 0.00 0.36 0.11 70 1022.5
20260507040504 48 195 11.3 19.1 0.00 0.36 0.11 70 1022.6
20260507040011 48 222 8.7 19.1 0.00 0.36 0.11 69 1022.5
20260507035507 48 210 9.6 17.4 0.00 0.36 0.11 69 1022.4
20260507035007 48 197 11.3 22.6 0.00 0.36 0.11 69 1022.4
20260507034514 48 230 14.8 22.6 0.00 0.36 0.11 68 1022.4
20260507034004 48 241 9.6 16.5 0.00 0.36 0.11 69 1022.4
20260507033507 48 226 12.2 19.1 0.00 0.36 0.11 68 1022.4
20260507033015 48 220 11.3 19.1 0.00 0.36 0.11 69 1022.3
20260507032504 48 191 10.4 18.2 0.00 0.36 0.11 71 1022.1
20260507032011 48 201 10.4 19.1 0.00 0.36 0.11 71 1022.3
20260507031011 47 204 13.0 20.9 0.00 0.36 0.11 73 1022.3
20260507030013 45 189 7.0 15.6 0.00 0.35 0.11 79 1022.4
20260507025504 45 202 7.8 15.6 0.00 0.35 0.11 79 1022.5
20260507025004 45 172 10.4 20.0 0.00 0.35 0.11 77 1022.6
20260507024514 45 191 10.4 20.0 0.00 0.35 0.11 75 1022.5
20260507024006 46 220 13.9 22.6 0.00 0.35 0.11 73 1022.6
20260507023505 47 219 14.8 22.6 0.00 0.35 0.11 69 1022.6
20260507023003 47 219 13.9 20.9 0.00 0.35 0.11 69 1022.6
20260507022504 48 185 9.6 19.1 0.00 0.35 0.11 72 1022.6
20260507022004 47 233 11.3 17.4 0.00 0.35 0.11 71 1022.6
20260507021504 47 238 11.3 17.4 0.00 0.35 0.11 69 1022.7
20260507021005 47 211 12.2 18.2 0.00 0.35 0.11 70 1022.7
20260507020504 47 204 11.3 18.2 0.00 0.35 0.11 71 1022.7
20260507020005 46 246 11.3 19.1 0.00 0.35 0.11 71 1022.7
20260507015504 46 201 11.3 19.1 0.00 0.35 0.11 71 1022.6
20260507015007 46 242 10.4 15.6 0.00 0.35 0.11 73 1022.7
20260507014504 46 231 9.6 15.6 0.00 0.35 0.11 74 1022.8
20260507014003 45 221 9.6 15.6 0.00 0.35 0.11 76 1022.8
20260507013504 45 204 9.6 15.6 0.00 0.35 0.11 78 1022.8
20260507013014 45 210 5.2 11.3 0.00 0.35 0.11 79 1022.9
20260507012511 44 224 7.8 11.3 0.00 0.35 0.11 80 1022.9
20260507012003 44 229 7.0 9.6 0.01 0.35 0.11 81 1022.7
20260507011504 43 231 3.5 8.7 0.01 0.35 0.11 82 1022.9
20260507011007 43 185 4.3 9.6 0.01 0.35 0.11 81 1022.9
20260507010504 43 226 6.1 11.3 0.01 0.35 0.11 81 1022.9
20260507010004 43 193 7.8 11.3 0.01 0.35 0.11 81 1023.0
20260507005508 42 195 6.1 8.7 0.01 0.35 0.11 81 1022.9
20260507005004 42 202 5.2 7.8 0.01 0.35 0.11 81 1022.8
20260507004508 42 194 3.5 7.0 0.01 0.35 0.11 81 1022.9
20260507004004 42 232 2.6 7.0 0.01 0.35 0.11 81 1022.7
20260507003508 42 212 3.5 7.0 0.01 0.35 0.11 81 1022.7
20260507003008 42 212 2.6 8.7 0.01 0.34 0.10 80 1022.8
20260507002503 42 220 3.5 10.4 0.01 0.34 0.10 80 1022.8
20260507002009 41 205 5.2 10.4 0.00 0.33 0.09 80 1022.8
20260507001510 42 214 5.2 15.6 0.02 0.33 0.09 80 1022.8
20260507001009 42 193 6.1 15.6 0.02 0.33 0.09 79 1022.6
20260507000503 42 238 7.8 13.0 0.02 0.33 0.09 80 1022.6
20260507000004 42 233 6.1 10.4 0.02 0.33 0.09 81 1022.6
20260506235504 41 235 3.5 6.1 0.02 0.33 0.09 81 1022.4
20260506235006 41 208 3.5 7.0 0.02 0.33 0.09 81 1022.5
20260506234506 40 204 2.6 10.4 0.02 0.33 0.09 81 1022.5
20260506234006 40 189 4.3 11.3 0.02 0.33 0.09 81 1022.5
20260506233505 40 227 5.2 13.9 0.03 0.33 0.09 81 1022.5
20260506233009 40 191 6.1 15.6 0.02 0.33 0.08 80 1022.6
20260506232506 40 233 8.7 26.9 0.02 0.33 0.08 79 1022.5
20260506232004 40 213 12.2 26.9 0.02 0.33 0.08 78 1022.6
20260506231519 41 251 11.3 16.5 0.00 0.31 0.07 80 1022.6
20260506231005 41 245 7.0 12.2 0.00 0.31 0.07 81 1022.3
20260506230508 41 244 4.3 11.3 0.00 0.31 0.07 82 1022.0
20260506230020 40 245 4.3 11.3 0.01 0.31 0.07 82 1022.0
20260506225507 40 260 4.3 11.3 0.03 0.31 0.07 82 1021.9
20260506225008 39 255 5.2 11.3 0.04 0.31 0.07 82 1021.7
20260506224512 39 258 4.3 16.5 0.05 0.31 0.07 81 1021.6
20260506224006 39 238 8.7 17.4 0.05 0.31 0.07 81 1021.6
20260506223504 39 216 8.7 17.4 0.04 0.30 0.06 81 1021.8
20260506223006 39 208 11.3 17.4 0.04 0.30 0.06 82 1022.0
20260506222509 39 250 6.1 11.3 0.04 0.30 0.06 82 1022.0
20260506222006 39 236 3.5 9.6 0.04 0.30 0.06 82 1021.9
20260506221507 38 233 5.2 14.8 0.04 0.30 0.06 82 1021.8
20260506221008 38 209 6.1 17.4 0.04 0.30 0.06 81 1021.7
20260506220508 38 185 9.6 19.1 0.04 0.30 0.06 81 1021.5
20260506220005 38 221 12.2 19.1 0.03 0.29 0.05 81 1021.7
20260506215507 39 199 10.4 15.6 0.02 0.28 0.03 81 1021.7
20260506215006 39 241 6.1 14.8 0.00 0.26 0.02 81 1021.6
20260506214520 39 209 2.6 4.3 0.00 0.25 0.01 82 1021.3
20260506213508 39 193 1.7 7.0 0.00 0.25 0.01 81 1020.7
20260506212506 39 175 2.6 7.8 0.00 0.25 0.01 81 1020.8
20260506212002 39 166 4.3 7.8 0.00 0.25 0.01 81 1020.8
20260506211004 39 185 4.3 7.8 0.00 0.25 0.01 81 1020.6
20260506210507 39 175 4.3 7.8 0.00 0.25 0.01 81 1020.6
20260506210016 39 198 5.2 7.8 0.00 0.25 0.01 81 1020.7
20260506205008 39 195 3.5 7.8 0.00 0.25 0.01 80 1020.4
20260506204008 39 213 4.3 9.6 0.00 0.25 0.00 80 1020.5
20260506203508 39 237 5.2 9.6 0.00 0.25 0.00 80 1020.3
20260506203012 39 233 4.3 11.3 0.00 0.25 0.00 80 1020.3
20260506202511 39 228 6.1 11.3 0.00 0.25 0.00 80 1020.1
20260506202008 38 225 7.0 11.3 0.00 0.25 0.00 80 1020.2
20260506201509 38 235 4.3 11.3 0.00 0.25 0.00 80 1020.1
20260506201008 38 224 7.0 11.3 0.00 0.25 0.00 81 1019.9
20260506200509 38 233 6.1 11.3 0.00 0.25 0.00 82 1019.8
20260506200009 38 245 4.3 7.8 0.00 0.25 0.00 82 1019.7
20260506195506 38 211 1.7 7.8 0.00 0.25 0.00 82 1019.8
20260506195009 38 227 3.5 7.8 0.00 0.25 0.00 82 1019.8
20260506194008 38 195 2.6 8.7 0.00 0.25 0.00 82 1020.0
20260506193508 38 217 3.5 8.7 0.00 0.25 0.00 82 1020.0
20260506192508 38 226 7.8 16.5 0.00 0.25 0.00 81 1019.9
20260506192010 39 251 8.7 16.5 0.00 0.25 0.00 80 1020.1
20260506191512 39 200 7.8 11.3 0.00 0.24 0.00 79 1020.3
20260506191010 39 175 3.5 7.8 0.00 0.24 0.00 79 1020.0
20260506190023 38 249 3.5 7.0 0.00 0.24 0.00 80 1019.8
20260506185509 38 269 3.5 7.0 0.00 0.24 0.00 80 1019.8
20260506185007 38 262 2.6 7.0 0.00 0.24 0.00 80 1019.7
20260506184526 38 254 1.7 7.0 0.00 0.24 0.00 80 1019.6
20260506184007 38 265 2.6 6.1 0.00 0.24 0.00 80 1019.5
20260506183015 38 240 2.6 10.4 0.00 0.24 0.00 80 1019.4
20260506182506 38 258 6.1 10.4 0.00 0.24 0.00 80 1019.4
20260506182013 38 246 5.2 8.7 0.00 0.24 0.00 80 1019.3
20260506181008 38 245 3.5 12.2 0.00 0.24 0.00 80 1019.0
20260506180511 39 268 7.0 12.2 0.00 0.24 0.00 80 1019.1
20260506174518 39 263 6.1 11.3 0.00 0.24 0.00 80 1019.1
20260506174012 39 267 4.3 13.0 0.00 0.24 0.00 79 1019.1
20260506173508 39 255 7.8 13.0 0.00 0.24 0.00 79 1019.1
20260506173008 39 245 7.0 14.8 0.00 0.24 0.00 78 1019.2
20260506172504 40 247 8.7 14.8 0.00 0.24 0.00 78 1019.2
20260506172003 40 245 10.4 14.8 0.00 0.24 0.00 78 1019.2
20260506171507 40 251 8.7 13.9 0.00 0.24 0.00 78 1019.2
20260506171005 40 241 9.6 13.9 0.00 0.24 0.00 78 1019.2
20260506170504 40 223 7.0 13.9 0.00 0.24 0.00 79 1019.3
20260506170004 39 243 7.0 11.3 0.00 0.24 0.00 79 1019.2
20260506165504 39 238 5.2 13.0 0.00 0.24 0.00 79 1019.2
20260506165005 40 239 6.1 13.0 0.00 0.24 0.00 78 1019.3
20260506164506 40 250 7.0 13.9 0.00 0.24 0.00 78 1019.2
20260506164009 40 243 7.0 13.9 0.00 0.24 0.00 77 1019.2
20260506163006 40 229 7.0 12.2 0.00 0.24 0.00 77 1019.3
20260506161504 40 197 5.2 8.7 0.00 0.24 0.00 78 1019.3
20260506161004 40 200 4.3 7.8 0.00 0.24 0.00 79 1019.2
20260506160504 40 225 2.6 7.8 0.00 0.24 0.00 79 1019.3
20260506160015 40 171 4.3 7.8 0.00 0.24 0.00 78 1019.2
20260506155505 40 185 1.7 7.0 0.00 0.24 0.00 78 1019.3
20260506155008 40 200 3.5 9.6 0.00 0.24 0.00 78 1019.3
20260506154511 41 197 5.2 11.3 0.00 0.24 0.00 77 1019.3
20260506154007 41 157 5.2 11.3 0.00 0.24 0.00 76 1019.3
20260506153503 41 185 7.8 10.4 0.00 0.24 0.00 75 1019.3
20260506153009 42 202 6.1 11.3 0.00 0.24 0.00 74 1019.3
20260506152502 42 229 7.0 11.3 0.00 0.24 0.00 74 1019.3
20260506152006 42 256 2.6 7.8 0.00 0.24 0.00 74 1019.2
20260506151514 41 219 1.7 4.3 0.00 0.24 0.00 74 1019.2
20260506151003 41 185 0.0 3.5 0.00 0.24 0.00 74 1019.2
20260506150013 41 172 1.7 5.2 0.00 0.24 0.00 73 1019.4
20260506145508 41 196 1.7 5.2 0.00 0.24 0.00 73 1019.4
20260506145006 41 206 2.6 7.8 0.00 0.24 0.00 73 1019.3
20260506144509 42 229 2.6 8.7 0.00 0.24 0.00 73 1019.3
20260506144006 42 255 3.5 9.6 0.00 0.24 0.00 72 1019.3
20260506143506 42 223 5.2 10.4 0.00 0.24 0.00 72 1019.3
20260506143013 42 274 6.1 11.3 0.00 0.24 0.00 72 1019.3
20260506142503 42 243 7.0 13.0 0.00 0.24 0.00 72 1019.2
20260506142002 42 220 6.1 14.8 0.00 0.24 0.00 71 1019.1
20260506141504 42 246 9.6 14.8 0.00 0.24 0.00 72 1019.1
20260506141005 43 251 8.7 16.5 0.00 0.24 0.00 72 1019.1
20260506140505 43 229 12.2 16.5 0.00 0.24 0.00 71 1019.1
20260506140003 43 247 8.7 14.8 0.00 0.24 0.00 72 1019.1
20260506135504 43 248 7.0 13.9 0.00 0.24 0.24 74 1019.2
20260506135002 44 211 8.7 13.9 0.00 0.24 0.24 74 1019.1
20260506134506 44 235 7.0 15.6 0.00 0.24 0.24 74 1018.9
20260506134002 44 245 9.6 18.2 0.00 0.24 0.24 73 1018.9
20260506133004 45 237 7.0 16.5 0.00 0.24 0.24 74 1018.9
20260506131503 45 236 6.1 14.8 0.00 0.24 0.24 75 1018.8
20260506130506 45 259 9.6 13.9 0.00 0.24 0.24 77 1018.6
20260506130008 46 268 7.0 12.2 0.00 0.24 0.24 76 1018.6
20260506125502 46 256 7.0 13.0 0.00 0.24 0.24 76 1018.6
20260506125005 46 250 7.8 13.0 0.00 0.24 0.24 77 1018.7
20260506124513 46 237 7.8 13.0 0.00 0.24 0.24 77 1018.7
20260506124002 45 251 6.1 10.4 0.00 0.24 0.24 78 1018.7
20260506122507 45 241 7.8 14.8 0.00 0.24 0.24 79 1018.7
20260506122003 45 256 9.6 14.8 0.00 0.24 0.24 79 1018.7
20260506121505 45 239 7.0 12.2 0.00 0.24 0.24 80 1018.6
20260506121003 45 226 7.8 13.0 0.00 0.24 0.24 81 1018.7
20260506120004 45 258 7.8 14.8 0.00 0.24 0.24 82 1018.6
20260506115503 45 266 7.8 14.8 0.01 0.24 0.24 83 1018.7
20260506115007 45 237 7.8 14.8 0.03 0.24 0.24 83 1018.6
20260506114503 45 247 8.7 17.4 0.03 0.24 0.24 84 1018.6
20260506114006 45 256 7.0 17.4 0.03 0.24 0.24 84 1018.6
20260506113503 45 265 7.8 16.5 0.04 0.24 0.24 85 1018.6
20260506113004 45 228 8.7 16.5 0.04 0.24 0.24 85 1018.6
20260506111004 45 224 10.4 21.7 0.09 0.23 0.23 85 1018.8
20260506110504 45 202 13.9 25.2 0.18 0.23 0.23 85 1018.6
20260506110006 45 229 13.9 30.4 0.22 0.23 0.23 85 1018.6
20260506105507 46 185 16.5 30.4 0.21 0.22 0.22 85 1018.5
20260506105004 48 257 9.6 15.6 0.19 0.21 0.21 86 1018.2
20260506104509 48 223 7.0 14.8 0.19 0.21 0.21 86 1018.1
20260506104004 48 225 6.1 15.6 0.18 0.20 0.20 86 1018.0
20260506103508 48 255 9.6 15.6 0.18 0.19 0.19 86 1018.0
20260506103018 49 259 8.7 14.8 0.18 0.19 0.19 85 1017.9
20260506102504 48 247 7.8 14.8 0.17 0.18 0.18 85 1017.8
20260506101506 48 235 4.3 13.0 0.16 0.17 0.17 84 1017.8
20260506101008 49 243 7.0 13.9 0.14 0.14 0.14 82 1017.9
20260506100504 51 206 8.7 14.8 0.05 0.05 0.05 83 1017.8
20260506100005 52 313 6.1 15.6 0.01 0.01 0.01 84 1016.9
20260506095504 51 354 6.1 15.6 0.01 0.01 0.01 84 1016.4
20260506095005 51 359 8.7 13.0 0.01 0.01 0.01 84 1016.4
20260506094506 51 341 7.0 16.5 0.01 0.01 0.01 84 1016.5
20260506094003 51 353 8.7 16.5 0.01 0.01 0.01 83 1016.6
20260506093507 51 16 9.6 16.5 0.01 0.01 0.01 83 1016.7
20260506093013 51 351 11.3 16.5 0.01 0.01 0.01 83 1016.8
20260506092507 51 345 9.6 15.6 0.01 0.01 0.01 83 1016.9
20260506092004 52 342 9.6 16.5 0.01 0.01 0.01 82 1016.8
20260506091517 52 340 10.4 17.4 0.00 0.00 0.00 82 1016.9
20260506091004 52 330 11.3 19.1 0.00 0.00 0.00 81 1016.9
20260506090501 52 324 13.0 19.1 0.00 0.00 0.00 80 1016.9
20260506090015 52 343 12.2 20.9 0.00 0.00 0.00 80 1016.8
20260506085505 53 331 11.3 20.9 0.00 0.00 0.00 78 1016.6
20260506085008 53 1 12.2 20.9 0.00 0.00 0.00 76 1016.5
20260506084511 53 357 13.9 20.9 0.00 0.00 0.00 75 1016.3
20260506084005 53 22 13.9 20.0 0.00 0.00 0.00 75 1016.1
20260506083507 53 331 9.6 21.7 0.00 0.00 0.00 74 1016.1
20260506083009 53 12 12.2 21.7 0.00 0.00 0.00 74 1016.1
20260506082506 53 324 9.6 17.4 0.00 0.00 0.00 74 1016.1
20260506082012 53 13 8.7 18.2 0.00 0.00 0.00 74 1016.1
20260506081509 53 25 9.6 18.2 0.00 0.00 0.00 74 1016.0
20260506081011 53 356 7.8 20.0 0.00 0.00 0.00 74 1016.0
20260506080507 53 357 8.7 20.0 0.00 0.00 0.00 74 1016.0
20260506073009 54 355 7.0 14.8 0.00 0.00 0.00 74 1015.9
20260506072003 54 345 7.8 14.8 0.00 0.00 0.00 73 1016.0
20260506071519 54 311 7.0 15.6 0.00 0.00 0.00 73 1016.1
20260506071006 55 343 9.6 15.6 0.00 0.00 0.00 72 1016.1
20260506070507 55 359 7.0 18.2 0.00 0.00 0.00 72 1016.1
20260506062510 54 6 5.2 16.5 0.00 0.00 0.00 72 1016.7
20260506062011 55 10 7.8 16.5 0.00 0.00 0.00 71 1016.7
20260506061007 56 360 8.7 18.2 0.00 0.00 0.00 68 1016.7
20260506060504 56 333 10.4 18.2 0.00 0.00 0.00 68 1016.8